sat.trackr.live / text

‹ back to catalog

FLOCK 4BE-11

NORAD 60501 · 2024-149AK

PAYLOAD ACTIVE UNKNOWN

§ Identity

Operator
Country
US
Launch date
2024-08-16
Launch site
AFWTR
Launch vehicle
Mass (kg)
RCS (m²)

Purposes: earth_obs

External: N2YO · Heavens-Above · Gunter

§ Orbital elements

Epoch: 2026-05-24T23:01:36.059232Z

Period
93.38 min
Inclination
97.3698°
Eccentricity
0.0003242
Mean motion
15.42102309 rev/d
Perigee alt
437.7 km
Apogee alt
442.1 km
Semi-major
6,818.0 km
B*
3.8345e-4
RAAN
228.8586°
Arg perigee
24.3661°
Mean anomaly
335.7739°
Rev number
9,877

§ Raw data

FLOCK 4BE-111 60501U 24149AK  26144.95944513  .00016330  00000+0  38345-3 0  99972 60501  97.3698 228.8586 0003242  24.3661 335.7739 15.42102309 98773

JSON: /api/v1/satellites/60501 · /tle

For live sub-satellite position, see the globe view (requires WebGL).

§ Visibility from observer

Set your observer location to see the next 7 days of passes ≥ 10°. The values pass through the URL so the page stays shareable.

No JS? Fill the form by hand. The geolocation button needs JavaScript.